GW6022 Weather Reports


time (UTC)temp
C
wind
direction
speed
KPH
gust
KPH
rain 1hr
cm
rain 24hr
cm
rain mn
cm
humidity
%
barometer
mb
20260506033630 22 275 4.8 20.9 0.00 0.00 0.00 32 1012.4
20260506033310 22 265 3.2 20.9 0.00 0.00 0.00 33 1012.5
20260506033130 22 259 3.2 20.9 0.00 0.00 0.00 33 1012.5
20260506032631 22 263 3.2 14.5 0.00 0.00 0.00 33 1012.5
20260506032311 22 273 3.2 14.5 0.00 0.00 0.00 33 1012.5
20260506032128 22 266 3.2 14.5 0.00 0.00 0.00 33 1012.5
20260506031627 22 281 3.2 14.5 0.00 0.00 0.00 33 1012.6
20260506031353 22 281 4.8 11.3 0.00 0.00 0.00 33 1012.6
20260506031311 22 259 3.2 11.3 0.00 0.00 0.00 33 1012.6
20260506030626 22 234 3.2 11.3 0.00 0.00 0.00 32 1012.6
20260506030310 22 267 3.2 11.3 0.00 0.00 0.00 32 1012.6
20260506030128 22 270 3.2 12.9 0.00 0.00 0.00 32 1012.7
20260506025626 22 279 4.8 12.9 0.00 0.00 0.00 31 1012.6
20260506025312 22 264 4.8 14.5 0.00 0.00 0.00 31 1012.5
20260506025128 22 262 4.8 14.5 0.00 0.00 0.00 31 1012.5
20260506024752 23 287 3.2 11.3 0.00 0.00 0.00 29 1012.6
20260506024628 22 271 3.2 14.5 0.00 0.00 0.00 30 1012.7
20260506023627 22 276 3.2 12.9 0.00 0.00 0.00 29 1012.5
20260506023354 23 272 3.2 14.5 0.00 0.00 0.00 28 1012.5
20260506023309 23 274 3.2 12.9 0.00 0.00 0.00 28 1012.5
20260506022849 23 271 3.2 14.5 0.00 0.00 0.00 27 1012.7
20260506022307 23 290 3.2 14.5 0.00 0.00 0.00 27 1012.5
20260506022126 23 265 1.6 16.1 0.00 0.00 0.00 26 1012.5
20260506021625 23 231 3.2 16.1 0.00 0.00 0.00 27 1012.2
20260506021306 23 276 3.2 16.1 0.00 0.00 0.00 26 1012.2
20260506021126 23 277 3.2 16.1 0.00 0.00 0.00 26 1012.3
20260506020626 23 300 3.2 16.1 0.00 0.00 0.00 26 1012.2
20260506020306 23 259 3.2 16.1 0.00 0.00 0.00 26 1012.2
20260506020127 23 273 3.2 14.5 0.00 0.00 0.00 26 1012.3
20260506015626 23 261 3.2 11.3 0.00 0.00 0.00 26 1012.3
20260506015346 23 275 3.2 11.3 0.00 0.00 0.00 26 1012.4
20260506015308 23 288 3.2 11.3 0.00 0.00 0.00 26 1012.3
20260506014849 23 274 3.2 11.3 0.00 0.00 0.00 26 1012.5
20260506014305 23 269 3.2 14.5 0.00 0.00 0.00 26 1012.3
20260506013847 23 278 3.2 14.5 0.00 0.00 0.00 26 1012.2
20260506013749 23 272 3.2 12.9 0.00 0.00 0.00 26 1012.3
20260506013123 23 273 3.2 12.9 0.00 0.00 0.00 26 1012.3
20260506012620 23 273 3.2 12.9 0.00 0.00 0.00 26 1012.4
20260506012307 23 257 3.2 11.3 0.00 0.00 0.00 26 1012.2
20260506012120 23 268 3.2 11.3 0.00 0.00 0.00 26 1012.3
20260506011618 23 267 4.8 16.1 0.00 0.00 0.00 26 1012.2
20260506011301 23 265 4.8 16.1 0.00 0.00 0.00 26 1012.2
20260506011120 23 263 4.8 16.1 0.00 0.00 0.00 26 1012.2
20260506010619 23 277 4.8 14.5 0.00 0.00 0.00 26 1012.3
20260506010300 23 263 4.8 12.9 0.00 0.00 0.00 26 1012.1
20260506010116 23 268 4.8 12.9 0.00 0.00 0.00 26 1012.2
20260506005831 23 266 4.8 12.9 0.00 0.00 0.00 26 1012.1
20260506005300 23 250 3.2 12.9 0.00 0.00 0.00 26 1012.2
20260506005110 23 270 3.2 11.3 0.00 0.00 0.00 26 1012.3
20260506004611 24 273 3.2 12.9 0.00 0.00 0.00 26 1012.3
20260506004257 24 275 3.2 12.9 0.00 0.00 0.00 26 1012.4
20260506004111 24 275 3.2 12.9 0.00 0.00 0.00 26 1012.4
20260506003608 24 271 3.2 12.9 0.00 0.00 0.00 25 1012.4
20260506003327 24 271 1.6 12.9 0.00 0.00 0.00 25 1012.4
20260506003259 24 267 3.2 12.9 0.00 0.00 0.00 25 1012.5
20260506002605 24 269 3.2 11.3 0.00 0.00 0.00 25 1012.4
20260506002105 25 269 4.8 14.5 0.00 0.00 0.00 24 1012.3
20260506001605 24 263 4.8 14.5 0.00 0.00 0.00 24 1012.2
20260506001330 25 265 3.2 14.5 0.00 0.00 0.00 23 1012.2
20260506001252 25 263 3.2 14.5 0.00 0.00 0.00 24 1012.2
20260506000559 25 271 3.2 11.3 0.00 0.00 0.00 23 1012.1
20260506000251 25 263 3.2 12.9 0.00 0.00 0.00 23 1012.1
20260506000100 25 261 3.2 12.9 0.00 0.00 0.00 23 1012.0
20260505235555 25 295 3.2 12.9 0.00 0.00 0.00 23 1012.1
20260505235251 25 273 3.2 12.9 0.00 0.00 0.00 22 1012.1
20260505235056 25 279 3.2 12.9 0.00 0.00 0.00 22 1012.1
20260505234555 25 271 3.2 12.9 0.00 0.00 0.00 22 1012.2
20260505234253 25 148 3.2 12.9 0.00 0.00 0.00 23 1012.2
20260505234055 25 276 3.2 12.9 0.00 0.00 0.00 23 1012.1
20260505233551 25 266 3.2 12.9 0.00 0.00 0.00 23 1012.2
20260505233252 25 278 3.2 12.9 0.00 0.00 0.00 23 1012.2
20260505233052 25 278 3.2 12.9 0.00 0.00 0.00 23 1012.2
20260505232551 25 273 3.2 9.7 0.00 0.00 0.00 22 1012.1
20260505232252 25 279 3.2 9.7 0.00 0.00 0.00 22 1012.1
20260505232050 25 269 3.2 16.1 0.00 0.00 0.00 22 1012.1
20260505231550 25 268 4.8 16.1 0.00 0.00 0.00 21 1012.2
20260505231252 25 275 3.2 16.1 0.00 0.00 0.00 21 1012.1
20260505231051 25 269 3.2 14.5 0.00 0.00 0.00 21 1012.1
20260505230548 25 121 3.2 11.3 0.00 0.00 0.00 22 1011.8
20260505230252 25 285 3.2 14.5 0.00 0.00 0.00 22 1011.8
20260505225547 25 111 4.8 14.5 0.00 0.00 0.00 22 1011.7
20260505225250 25 239 4.8 14.5 0.00 0.00 0.00 22 1011.8
20260505225041 25 238 4.8 14.5 0.00 0.00 0.00 22 1011.8
20260505224541 25 275 4.8 12.9 0.00 0.00 0.00 21 1011.9
20260505224251 26 275 4.8 12.9 0.00 0.00 0.00 21 1011.9
20260505224043 26 268 3.2 12.9 0.00 0.00 0.00 21 1011.9
20260505223542 26 269 3.2 12.9 0.00 0.00 0.00 21 1011.9
20260505223242 26 264 3.2 12.9 0.00 0.00 0.00 22 1011.9
20260505223042 26 254 3.2 12.9 0.00 0.00 0.00 22 1011.9
20260505222538 26 269 1.6 14.5 0.00 0.00 0.00 22 1012.0
20260505222242 26 106 3.2 14.5 0.00 0.00 0.00 24 1011.9
20260505222039 26 106 3.2 14.5 0.00 0.00 0.00 24 1011.9
20260505221539 25 93 4.8 14.5 0.00 0.00 0.00 24 1011.8
20260505221243 26 169 4.8 14.5 0.00 0.00 0.00 23 1011.7
20260505221037 26 102 4.8 14.5 0.00 0.00 0.00 23 1011.7
20260505220539 26 136 4.8 12.9 0.00 0.00 0.00 22 1011.7
20260505220241 26 244 4.8 12.9 0.00 0.00 0.00 22 1011.7
20260505220038 26 118 4.8 16.1 0.00 0.00 0.00 22 1011.7
20260505215539 26 186 3.2 16.1 0.00 0.00 0.00 22 1011.6
20260505215242 26 224 3.2 16.1 0.00 0.00 0.00 21 1011.7
20260505215037 26 245 3.2 12.9 0.00 0.00 0.00 21 1011.8
20260505214801 26 256 3.2 17.7 0.00 0.00 0.00 20 1011.9
20260505214715 26 254 3.2 17.7 0.00 0.00 0.00 20 1012.0
20260505214034 26 267 3.2 17.7 0.00 0.00 0.00 20 1012.0
20260505213533 26 219 3.2 14.5 0.00 0.00 0.00 21 1012.0
20260505213242 26 253 4.8 14.5 0.00 0.00 0.00 21 1012.0
20260505213033 26 134 4.8 14.5 0.00 0.00 0.00 21 1012.1
20260505212755 26 115 3.2 14.5 0.00 0.00 0.00 21 1012.0
20260505212242 26 94 3.2 12.9 0.00 0.00 0.00 20 1012.1
20260505212034 27 165 1.6 12.9 0.00 0.00 0.00 21 1012.0
20260505211243 26 259 3.2 12.9 0.00 0.00 0.00 21 1012.2
20260505211033 26 254 4.8 12.9 0.00 0.00 0.00 21 1012.2
20260505210533 26 280 4.8 16.1 0.00 0.00 0.00 21 1012.1
20260505210242 26 261 4.8 16.1 0.00 0.00 0.00 22 1012.0
20260505210035 26 155 4.8 16.1 0.00 0.00 0.00 21 1011.9
20260505205534 27 254 3.2 16.1 0.00 0.00 0.00 21 1012.2
20260505205255 26 277 4.8 16.1 0.00 0.00 0.00 21 1012.3
20260505205242 26 246 3.2 16.1 0.00 0.00 0.00 21 1012.3
20260505204533 27 242 3.2 12.9 0.00 0.00 0.00 21 1012.4
20260505204241 27 248 3.2 12.9 0.00 0.00 0.00 20 1012.5
20260505204033 27 258 3.2 11.3 0.00 0.00 0.00 20 1012.4
20260505203533 27 284 3.2 14.5 0.00 0.00 0.00 20 1012.5
20260505203253 26 281 3.2 14.5 0.00 0.00 0.00 20 1012.5
20260505203243 27 271 3.2 14.5 0.00 0.00 0.00 20 1012.5
20260505202533 27 267 3.2 9.7 0.00 0.00 0.00 18 1012.7
20260505202245 27 274 1.6 9.7 0.00 0.00 0.00 20 1012.7
20260505202034 26 271 3.2 14.5 0.00 0.00 0.00 21 1012.7
20260505201532 26 267 3.2 14.5 0.00 0.00 0.00 22 1012.7
20260505201240 26 126 4.8 14.5 0.00 0.00 0.00 22 1012.7
20260505201029 26 132 4.8 20.9 0.00 0.00 0.00 22 1012.7
20260505200529 26 155 3.2 20.9 0.00 0.00 0.00 21 1012.9
20260505200242 27 181 4.8 20.9 0.00 0.00 0.00 20 1012.9
20260505200030 26 273 4.8 20.9 0.00 0.00 0.00 21 1013.0
20260505195756 27 278 6.4 22.5 0.00 0.00 0.00 20 1013.1
20260505195241 27 266 4.8 22.5 0.00 0.00 0.00 20 1013.2
20260505195029 27 275 4.8 22.5 0.00 0.00 0.00 19 1013.2
20260505194718 26 90 3.2 14.5 0.00 0.00 0.00 22 1013.1
20260505194530 26 277 4.8 14.5 0.00 0.00 0.00 20 1013.2
20260505194030 26 99 3.2 11.3 0.00 0.00 0.00 21 1013.1
20260505193531 27 259 3.2 11.3 0.00 0.00 0.00 20 1013.3
20260505193242 27 273 3.2 9.7 0.00 0.00 0.00 22 1013.2
20260505193029 26 342 3.2 9.7 0.00 0.00 0.00 22 1013.3
20260505192529 26 265 3.2 14.5 0.00 0.00 0.00 21 1013.3
20260505192241 26 275 3.2 14.5 0.00 0.00 0.00 21 1013.3
20260505192030 26 126 3.2 14.5 0.00 0.00 0.00 22 1013.3
20260505191731 25 100 3.2 12.9 0.00 0.00 0.00 23 1013.2
20260505191528 25 261 3.2 12.9 0.00 0.00 0.00 23 1013.2
20260505191402 26 86 3.2 12.9 0.00 0.00 0.00 23 1013.3
20260505190526 26 233 4.8 12.9 0.00 0.00 0.00 23 1013.4
20260505190242 26 174 3.2 12.9 0.00 0.00 0.00 22 1013.5
20260505190024 26 273 3.2 12.9 0.00 0.00 0.00 22 1013.5
20260505185722 25 265 4.8 16.1 0.00 0.00 0.00 24 1013.5
20260505185528 26 265 3.2 12.9 0.00 0.00 0.00 24 1013.5
20260505185359 26 249 4.8 16.1 0.00 0.00 0.00 22 1013.5
20260505184525 26 273 3.2 16.1 0.00 0.00 0.00 21 1013.7
20260505184026 25 260 3.2 11.3 0.00 0.00 0.00 22 1013.6
20260505183721 25 259 3.2 12.9 0.00 0.00 0.00 22 1013.8
20260505183526 25 256 3.2 12.9 0.00 0.00 0.00 22 1013.7
20260505183402 25 113 3.2 12.9 0.00 0.00 0.00 22 1013.7
20260505182525 26 277 3.2 6.4 0.00 0.00 0.00 21 1013.9
20260505182243 26 263 3.2 11.3 0.00 0.00 0.00 21 1014.0
20260505182024 25 257 4.8 11.3 0.00 0.00 0.00 21 1014.1
20260505181523 25 289 3.2 11.3 0.00 0.00 0.00 21 1014.1
20260505181235 25 284 3.2 9.7 0.00 0.00 0.00 21 1014.2
20260505181024 25 134 3.2 16.1 0.00 0.00 0.00 20 1014.1
20260505180711 25 288 4.8 16.1 0.00 0.00 0.00 19 1014.5
20260505180525 25 284 4.8 16.1 0.00 0.00 0.00 19 1014.4
20260505180025 26 269 3.2 14.5 0.00 0.00 0.00 20 1014.5
20260505175522 26 254 3.2 12.9 0.00 0.00 0.00 20 1014.5
20260505175236 26 267 3.2 16.1 0.00 0.00 0.00 21 1014.5
20260505175023 26 275 4.8 16.1 0.00 0.00 0.00 21 1014.6
20260505174753 25 271 4.8 16.1 0.00 0.00 0.00 22 1014.6
20260505174712 25 281 4.8 20.9 0.00 0.00 0.00 22 1014.6
20260505174022 25 117 4.8 20.9 0.00 0.00 0.00 22 1014.6
20260505173520 25 249 4.8 20.9 0.00 0.00 0.00 23 1014.8
20260505173233 25 277 4.8 16.1 0.00 0.00 0.00 22 1014.8
20260505173025 25 250 4.8 14.5 0.00 0.00 0.00 21 1014.8
20260505172518 26 263 4.8 14.5 0.00 0.00 0.00 21 1014.7
20260505172231 26 265 4.8 14.5 0.00 0.00 0.00 20 1014.8
20260505172014 26 272 4.8 14.5 0.00 0.00 0.00 23 1014.8
20260505171713 25 355 4.8 20.9 0.00 0.00 0.00 22 1014.9
20260505171516 25 281 4.8 20.9 0.00 0.00 0.00 22 1014.9
20260505171015 25 286 3.2 20.9 0.00 0.00 0.00 23 1015.0
20260505170515 25 296 4.8 20.9 0.00 0.00 0.00 23 1014.9
20260505170237 26 270 3.2 20.9 0.00 0.00 0.00 22 1014.8
20260505170229 26 277 4.8 20.9 0.00 0.00 0.00 23 1014.7
20260505165512 25 262 1.6 11.3 0.00 0.00 0.00 24 1014.8
20260505165226 25 261 3.2 11.3 0.00 0.00 0.00 25 1014.7
20260505165012 25 188 3.2 12.9 0.00 0.00 0.00 25 1014.7
20260505164511 25 208 4.8 16.1 0.00 0.00 0.00 24 1014.7
20260505164226 25 137 6.4 16.1 0.00 0.00 0.00 23 1014.7
20260505164012 25 267 4.8 16.1 0.00 0.00 0.00 23 1014.8
20260505163736 25 233 4.8 16.1 0.00 0.00 0.00 23 1014.7
20260505163227 25 257 3.2 16.1 0.00 0.00 0.00 25 1014.7
20260505163009 25 293 3.2 16.1 0.00 0.00 0.00 26 1014.7
20260505162719 25 132 1.6 6.4 0.00 0.00 0.00 25 1014.7
20260505162226 25 281 3.2 9.7 0.00 0.00 0.00 25 1014.8
20260505162002 25 277 3.2 9.7 0.00 0.00 0.00 26 1014.9
20260505161502 24 265 4.8 14.5 0.00 0.00 0.00 27 1015.0
20260505161225 24 265 4.8 14.5 0.00 0.00 0.00 27 1015.0
20260505161002 24 279 4.8 14.5 0.00 0.00 0.00 26 1015.1
20260505160501 25 319 4.8 14.5 0.00 0.00 0.00 25 1015.1
20260505160222 25 251 3.2 14.5 0.00 0.00 0.00 25 1015.3
20260505153220 24 267 3.2 12.9 0.00 0.00 0.00 27 1015.0
20260505153210 24 261 3.2 12.9 0.00 0.00 0.00 27 1015.1
20260505152453 24 269 3.2 12.9 0.00 0.00 0.00 26 1015.1
20260505152210 24 263 3.2 12.9 0.00 0.00 0.00 25 1015.2
20260505151953 25 263 3.2 14.5 0.00 0.00 0.00 27 1015.1
20260505151452 24 269 3.2 14.5 0.00 0.00 0.00 27 1015.1
20260505151210 25 288 1.6 14.5 0.00 0.00 0.00 26 1015.1
20260505150454 24 271 0.0 3.2 0.00 0.00 0.00 29 1015.2
20260505150210 24 270 0.0 3.2 0.00 0.00 0.00 29 1015.2
20260505140208 22 268 0.0 1.6 0.00 0.00 0.00 37 1014.8
20260505130212 18 268 0.0 0.0 0.00 0.00 0.00 43 1014.4
20260505130207 17 268 0.0 0.0 0.00 0.00 0.00 44 1014.4
20260505124945 16 268 0.0 3.2 0.00 0.00 0.00 45 1014.2
20260505124444 16 268 0.0 3.2 0.00 0.00 0.00 44 1014.2
20260505124209 16 268 0.0 3.2 0.00 0.00 0.00 45 1014.2
20260505123945 16 268 0.0 3.2 0.00 0.00 0.00 45 1014.2
20260505123445 16 268 0.0 3.2 0.00 0.00 0.00 45 1014.1
20260505123209 16 268 0.0 3.2 0.00 0.00 0.00 45 1014.0
20260505122945 16 268 0.0 3.2 0.00 0.00 0.00 45 1014.0
20260505122445 16 268 0.0 4.8 0.00 0.00 0.00 45 1013.9
20260505122212 16 268 0.0 4.8 0.00 0.00 0.00 45 1013.9
20260505122205 16 268 1.6 4.8 0.00 0.00 0.00 45 1013.9
20260505121445 16 268 1.6 6.4 0.00 0.00 0.00 45 1014.1
20260505121211 16 268 1.6 6.4 0.00 0.00 0.00 45 1014.1
20260505121204 16 268 1.6 6.4 0.00 0.00 0.00 45 1014.2
20260505120445 16 268 0.0 3.2 0.00 0.00 0.00 46 1014.0
20260505120205 16 268 0.0 3.2 0.00 0.00 0.00 46 1014.1
20260505115942 15 268 1.6 4.8 0.00 0.00 0.00 46 1014.1
20260505115440 15 268 0.0 6.4 0.00 0.00 0.00 46 1014.1
20260505115205 15 269 0.0 6.4 0.00 0.00 0.00 46 1013.9
20260505114942 15 269 1.6 6.4 0.00 0.00 0.00 46 1013.9
20260505114442 15 269 1.6 6.4 0.00 0.00 0.00 46 1013.8
20260505114204 15 269 1.6 6.4 0.00 0.00 0.00 46 1013.7
20260505113939 15 269 3.2 9.7 0.00 0.00 0.00 46 1013.7
20260505113440 15 271 1.6 9.7 0.00 0.00 0.00 46 1013.6
20260505113204 15 271 1.6 9.7 0.00 0.00 0.00 46 1013.6
20260505112942 15 271 1.6 11.3 0.00 0.00 0.00 46 1013.6
20260505112441 15 271 3.2 11.3 0.00 0.00 0.00 46 1013.5
20260505112205 15 268 3.2 11.3 0.00 0.00 0.00 46 1013.5
20260505111942 15 272 3.2 11.3 0.00 0.00 0.00 46 1013.4
20260505111440 15 273 3.2 11.3 0.00 0.00 0.00 46 1013.4
20260505111204 15 269 3.2 11.3 0.00 0.00 0.00 46 1013.3
20260505110940 15 268 3.2 9.7 0.00 0.00 0.00 46 1013.4
20260505110703 15 272 3.2 9.7 0.00 0.00 0.00 46 1013.3
20260505110650 15 266 3.2 9.7 0.00 0.00 0.00 46 1013.2
20260505102205 15 278 4.8 12.9 0.00 0.00 0.00 45 1013.2
20260505101936 15 267 4.8 11.3 0.00 0.00 0.00 45 1013.2
20260505101436 15 271 4.8 14.5 0.00 0.00 0.00 44 1013.2
20260505101202 15 263 4.8 14.5 0.00 0.00 0.00 44 1013.3
20260505100935 16 276 3.2 14.5 0.00 0.00 0.00 44 1013.3
20260505100434 16 227 3.2 11.3 0.00 0.00 0.00 44 1013.4
20260505100202 16 266 3.2 14.5 0.00 0.00 0.00 44 1013.4
20260505095935 16 275 4.8 14.5 0.00 0.00 0.00 44 1013.4
20260505095434 16 261 4.8 14.5 0.00 0.00 0.00 43 1013.5
20260505095201 16 275 4.8 14.5 0.00 0.00 0.00 43 1013.4
20260505094933 16 261 4.8 14.5 0.00 0.00 0.00 43 1013.4
20260505094436 16 265 4.8 14.5 0.00 0.00 0.00 43 1013.3
20260505094201 16 276 4.8 14.5 0.00 0.00 0.00 43 1013.2
20260505093930 16 279 3.2 14.5 0.00 0.00 0.00 42 1013.2
20260505093428 16 275 4.8 14.5 0.00 0.00 0.00 42 1013.2
20260505093200 16 265 4.8 12.9 0.00 0.00 0.00 41 1013.2
20260505092927 16 271 4.8 12.9 0.00 0.00 0.00 41 1013.2
20260505092423 16 265 3.2 12.9 0.00 0.00 0.00 41 1013.2
20260505092201 16 273 3.2 14.5 0.00 0.00 0.00 41 1013.3
20260505091922 16 275 3.2 14.5 0.00 0.00 0.00 41 1013.3
20260505091645 16 267 3.2 14.5 0.00 0.00 0.00 40 1013.4
20260505091200 16 276 4.8 14.5 0.00 0.00 0.00 40 1013.4
20260505090919 16 259 4.8 14.5 0.00 0.00 0.00 39 1013.5
20260505090655 17 276 4.8 14.5 0.00 0.00 0.00 39 1013.5
20260505090203 17 277 3.2 12.9 0.00 0.00 0.00 39 1013.5
20260505085918 17 267 4.8 12.9 0.00 0.00 0.00 38 1013.5
20260505085418 17 278 3.2 12.9 0.00 0.00 0.00 38 1013.5
20260505085158 17 263 3.2 11.3 0.00 0.00 0.00 37 1013.6
20260505084918 17 274 3.2 12.9 0.00 0.00 0.00 37 1013.5
20260505084631 17 268 1.6 12.9 0.00 0.00 0.00 37 1013.6
20260505084158 17 270 3.2 12.9 0.00 0.00 0.00 36 1013.6
20260505083911 17 271 1.6 14.5 0.00 0.00 0.00 36 1013.7
20260505083411 17 267 3.2 14.5 0.00 0.00 0.00 35 1013.6
20260505083134 17 271 3.2 14.5 0.00 0.00 0.00 35 1013.5
20260505082409 17 271 3.2 14.5 0.00 0.00 0.00 34 1013.5
20260505082157 17 265 3.2 14.5 0.00 0.00 0.00 34 1013.5
20260505081909 17 273 3.2 9.7 0.00 0.00 0.00 34 1013.6
20260505081407 17 273 3.2 9.7 0.00 0.00 0.00 33 1013.5
20260505081155 17 279 3.2 9.7 0.00 0.00 0.00 33 1013.5
20260505080905 17 275 3.2 12.9 0.00 0.00 0.00 33 1013.6
20260505080405 17 259 3.2 12.9 0.00 0.00 0.00 32 1013.6
20260505080152 18 267 3.2 12.9 0.00 0.00 0.00 32 1013.6
20260505075904 18 270 3.2 9.7 0.00 0.00 0.00 31 1013.6
20260505075404 18 269 4.8 20.9 0.00 0.00 0.00 31 1013.5
20260505075153 18 273 4.8 20.9 0.00 0.00 0.00 30 1013.4
20260505074905 18 267 4.8 20.9 0.00 0.00 0.00 30 1013.4
20260505074401 18 269 3.2 14.5 0.00 0.00 0.00 30 1013.3
20260505074148 18 270 3.2 14.5 0.00 0.00 0.00 30 1013.4
20260505073901 18 271 3.2 14.5 0.00 0.00 0.00 30 1013.4
20260505073402 18 269 3.2 12.9 0.00 0.00 0.00 30 1013.3
20260505073149 18 273 3.2 12.9 0.00 0.00 0.00 29 1013.4
20260505072900 18 267 3.2 12.9 0.00 0.00 0.00 29 1013.4
20260505072623 18 265 4.8 14.5 0.00 0.00 0.00 29 1013.4
20260505072401 18 271 3.2 14.5 0.00 0.00 0.00 29 1013.4
20260505071859 18 266 4.8 14.5 0.00 0.00 0.00 28 1013.4
20260505071400 19 268 4.8 14.5 0.00 0.00 0.00 28 1013.4
20260505071146 19 273 4.8 14.5 0.00 0.00 0.00 28 1013.4
20260505071120 19 254 4.8 14.5 0.00 0.00 0.00 29 1013.4
20260505070355 19 266 4.8 14.5 0.00 0.00 0.00 28 1013.4
20260505070144 19 276 3.2 14.5 0.00 0.00 0.00 28 1013.4
20260505065857 19 272 3.2 12.9 0.00 0.00 0.00 28 1013.4
20260505065356 19 256 3.2 11.3 0.00 0.00 0.00 28 1013.4
20260505065144 19 254 3.2 11.3 0.00 0.00 0.00 28 1013.4
20260505064852 19 269 3.2 9.7 0.00 0.00 0.00 28 1013.4
20260505064351 19 279 3.2 14.5 0.00 0.00 0.00 29 1013.4
20260505064144 19 274 3.2 14.5 0.00 0.00 0.00 29 1013.4
20260505063851 19 273 3.2 14.5 0.00 0.00 0.00 29 1013.4
20260505063351 19 271 3.2 14.5 0.00 0.00 0.00 29 1013.5
20260505063143 19 270 3.2 14.5 0.00 0.00 0.00 30 1013.5
20260505062852 19 269 3.2 14.5 0.00 0.00 0.00 30 1013.6
20260505062351 19 275 3.2 14.5 0.00 0.00 0.00 30 1013.6
20260505062144 19 276 3.2 14.5 0.00 0.00 0.00 30 1013.5
20260505061852 19 279 3.2 14.5 0.00 0.00 0.00 30 1013.5
20260505061617 19 269 3.2 16.1 0.00 0.00 0.00 31 1013.6
20260505061145 19 273 3.2 16.1 0.00 0.00 0.00 30 1013.6
20260505060852 19 271 1.6 16.1 0.00 0.00 0.00 31 1013.6
20260505060351 18 211 1.6 8.0 0.00 0.00 0.00 32 1013.6
20260505060219 18 211 1.6 8.0 0.00 0.00 0.00 32 1013.5
20260505055351 19 204 1.6 6.4 0.00 0.00 0.00 31 1013.6
20260505055143 19 204 1.6 3.2 0.00 0.00 0.00 31 1013.6
20260505054852 19 203 0.0 3.2 0.00 0.00 0.00 31 1013.6
20260505054353 19 203 1.6 6.4 0.00 0.00 0.00 32 1013.6
20260505054143 19 203 0.0 6.4 0.00 0.00 0.00 31 1013.7
20260505054108 19 203 1.6 6.4 0.00 0.00 0.00 31 1013.6
20260505053353 19 203 1.6 6.4 0.00 0.00 0.00 31 1013.7
20260505053144 19 203 1.6 6.4 0.00 0.00 0.00 31 1013.7
20260505052852 19 203 1.6 6.4 0.00 0.00 0.00 30 1013.7
20260505052351 19 203 1.6 4.8 0.00 0.00 0.00 31 1013.7
20260505052143 19 203 1.6 4.8 0.00 0.00 0.00 30 1013.7
20260505051852 19 203 1.6 4.8 0.00 0.00 0.00 31 1013.7
20260505051353 19 203 1.6 6.4 0.00 0.00 0.00 31 1013.7
20260505051145 19 203 1.6 6.4 0.00 0.00 0.00 31 1013.7
20260505050852 19 203 1.6 6.4 0.00 0.00 0.00 30 1013.7
20260505050630 19 200 3.2 6.4 0.00 0.00 0.00 31 1013.6
20260505050353 19 200 3.2 6.4 0.00 0.00 0.00 30 1013.6
20260505041347 20 196 1.6 4.8 0.00 0.00 0.00 30 1013.7
20260505041143 20 196 1.6 4.8 0.00 0.00 0.00 30 1013.6
20260505041112 20 196 1.6 6.4 0.00 0.00 0.00 31 1013.7
20260505040350 20 196 1.6 6.4 0.00 0.00 0.00 30 1013.6
20260505040145 20 196 3.2 6.4 0.00 0.00 0.00 31 1013.6
20260505035846 20 195 1.6 4.8 0.00 0.00 0.00 30 1013.6
20260505035346 20 194 1.6 4.8 0.00 0.00 0.00 31 1013.7
20260505035142 20 194 1.6 4.8 0.00 0.00 0.00 31 1013.7
20260505034843 20 194 1.6 4.8 0.00 0.00 0.00 31 1013.8
20260505034604 20 194 1.6 4.8 0.00 0.00 0.00 31 1013.8
20260505034140 20 194 1.6 4.8 0.00 0.00 0.00 30 1013.8